{"data":{"norad_id":56289,"intl_designator":"2023-056D","name":"STARLINK-30095","alt_names":[],"object_type":"PAYLOAD","status":"ACTIVE","operator":null,"country":"US","launch_date":"2023-04-19","launch_site_code":"AFETR","launch_vehicle":null,"mission":null,"orbit_class":"UNKNOWN","rcs_meters":null,"size_class":null,"mass_kg":null,"dimensions":null,"purposes":["comms"],"wikipedia_slug":null,"has_3d_model":false,"image_url":null,"decayed_at":null,"tle_current":{"epoch":"2026-05-25T04:06:01.561824Z","epoch_age_seconds":71004,"freshness":"FRESH","line1":"1 56289U 23056D   26145.17085141  .00001067  00000+0  48294-4 0  9995","line2":"2 56289  43.0028 111.1076 0001194 259.0888 100.9829 15.27578611172036","mean_motion":15.27578611,"eccentricity":0.0001194,"inclination_deg":43.0028,"raan_deg":111.1076,"arg_perigee_deg":259.0888,"mean_anomaly_deg":100.9829,"bstar":4.8294e-5,"rev_number":17203,"period_min":94.266834428726,"perigee_km":482.23402909202,"apogee_km":483.87248132497,"semimajor_km":6861.1902552085,"source":"CELESTRAK","updated_at":"2026-05-25T13:38:17.964645Z"}}}